, LA

(GMT )
High Island 179A

Weather History for KXIH - March, 2013

Change the Weather History Date:

Tuesday, March 5, 2013

  Actual Average Record
Temperature  
Mean Temperature 66 °F -  
Max Temperature 66 °F - - ()
Min Temperature 66 °F - - ()
Cooling Degree Days 1    
Growing Degree Days 16 (Base 50)    
Moisture  
Dew Point 63 °F    
Average Humidity 88    
Maximum Humidity 88    
Minimum Humidity 88    
Precipitation  
Precipitation 0.00 in - - ()
Sea Level Pressure  
Sea Level Pressure 30.07 in    
Wind  
Wind Speed 20 mph (NW)    
Max Wind Speed 30 mph    
Max Gust Speed 39 mph    
Visibility 9 miles    
Events      
T = Trace of Precipitation, MM = Missing Value Source: NWS Daily Summary

Daily Weather History Graph

Daily Weather History Graph

Search for Another Location

Airport or City:

Trip Planner

Search our weather history database for the weather conditions in past years. The results will help you decide how hot, cold, wet, or windy it might be!

Date:

Astronomy

Mar. 05, 2013 Rise Set
Actual Time 6:38 AM CST 6:20 PM CST
Civil Twilight 6:15 AM CST 6:44 PM CST
Nautical Twilight 5:47 AM CST 7:11 PM CST
Astronomical Twilight 5:20 AM CST 7:39 PM CST
Moon 1:31 AM CST (3/5) 12:20 PM CST (3/5)
Length of Visible Light 12h 29m
Length of Day
11h 41m
Last Quarter, 40% of the Moon is Illuminated
Mar 5
Last Quarter
Mar 11
New
Mar 19
First Quarter
Mar 27
Full
Apr 2
Last Quarter

Hourly Weather History & Observations

Time (CST) Temp. Dew Point Humidity Pressure Visibility Wind Dir Wind Speed Gust Speed Precip Events Conditions
12:35 AM 66.2 °F 62.6 °F 88% 29.82 in 7.0 mi SW 26.5 mph - N/A   Clear
12:55 AM 66.2 °F 62.6 °F 88% 29.82 in 7.0 mi SW 26.5 mph 32.2 mph N/A   Clear
1:15 AM 66.2 °F 62.6 °F 88% 29.83 in 7.0 mi SW 24.2 mph 32.2 mph N/A   Clear
1:35 AM 66.2 °F 62.6 °F 88% 29.82 in 7.0 mi SW 26.5 mph - N/A   Clear
1:55 AM 66.2 °F 62.6 °F 88% 29.83 in 7.0 mi SW 28.8 mph - N/A   Unknown
2:15 AM 66.2 °F 62.6 °F 88% 29.82 in 7.0 mi SW 26.5 mph 33.4 mph N/A   Unknown
2:35 AM 66.2 °F 62.6 °F 88% 29.82 in 7.0 mi SW 25.3 mph 32.2 mph N/A   Unknown
2:55 AM 66.2 °F 62.6 °F 88% 29.83 in 7.0 mi SW 26.5 mph 32.2 mph N/A   Unknown
3:15 AM 66.2 °F 62.6 °F 88% 29.84 in 7.0 mi SW 23.0 mph - N/A   Mostly Cloudy
3:35 AM 66.2 °F 62.6 °F 88% 29.84 in 7.0 mi SW 23.0 mph - N/A   Mostly Cloudy
3:55 AM 66.2 °F 62.6 °F 88% 29.84 in 7.0 mi SW 23.0 mph - N/A   Overcast
4:15 AM 66.2 °F 62.6 °F 88% 29.84 in 7.0 mi SW 21.9 mph - N/A   Overcast
4:55 AM 66.2 °F 62.6 °F 88% 29.85 in 7.0 mi SW 18.4 mph - N/A   Overcast
5:15 AM 66.2 °F 62.6 °F 88% 29.87 in 7.0 mi WSW 16.1 mph - N/A   Mostly Cloudy
5:35 AM 66.2 °F 62.6 °F 88% 29.87 in 7.0 mi SW 15.0 mph - N/A   Mostly Cloudy
5:55 AM 66.2 °F 62.6 °F 88% 29.98 in 6.0 mi NW 18.4 mph 27.6 mph N/A   Mostly Cloudy
6:15 AM 66.2 °F 62.6 °F 88% 29.99 in 6.0 mi NW 17.3 mph 23.0 mph N/A   Overcast
6:55 AM 66.2 °F 62.6 °F 88% 30.00 in 5.0 mi WNW 15.0 mph - N/A   Mostly Cloudy
7:15 AM 66.2 °F 62.6 °F 88% 29.99 in 6.0 mi West 13.8 mph - N/A   Mostly Cloudy
7:35 AM 66.2 °F 62.6 °F 88% 30.01 in 6.0 mi WNW 15.0 mph - N/A   Mostly Cloudy
7:55 AM 66.2 °F 62.6 °F 88% 30.03 in 6.0 mi WNW 16.1 mph - N/A   Mostly Cloudy
8:15 AM 66.2 °F 62.6 °F 88% 30.03 in 7.0 mi WNW 15.0 mph - N/A   Scattered Clouds
8:35 AM 66.2 °F 62.6 °F 88% 30.04 in 6.0 mi West 13.8 mph - N/A   Partly Cloudy
8:55 AM 66.2 °F 62.6 °F 88% 30.05 in 6.0 mi WNW 15.0 mph - N/A   Clear
9:15 AM 66.2 °F 62.6 °F 88% 30.06 in 6.0 mi WNW 16.1 mph - N/A   Scattered Clouds
9:35 AM 66.2 °F 62.6 °F 88% 30.07 in 10.0 mi North 19.6 mph 26.5 mph N/A   Mostly Cloudy
9:55 AM 66.2 °F 62.6 °F 88% 30.09 in 10.0 mi North 19.6 mph - N/A   Mostly Cloudy
10:15 AM 66.2 °F 62.6 °F 88% 30.10 in 10.0 mi NNW 18.4 mph - N/A   Mostly Cloudy
10:35 AM 66.2 °F 62.6 °F 88% 30.11 in 10.0 mi NNW 15.0 mph 21.9 mph N/A   Overcast
10:55 AM 66.2 °F 62.6 °F 88% 30.12 in 10.0 mi North 17.3 mph - N/A   Overcast
11:15 AM 66.2 °F 62.6 °F 88% 30.12 in 10.0 mi North 15.0 mph 21.9 mph N/A   Overcast
11:35 AM 66.2 °F 62.6 °F 88% 30.12 in 10.0 mi North 13.8 mph 23.0 mph N/A   Overcast
11:55 AM 66.2 °F 62.6 °F 88% 30.12 in 10.0 mi NNE 11.5 mph - N/A   Overcast
12:15 PM 66.2 °F 62.6 °F 88% 30.12 in 10.0 mi North 11.5 mph - N/A   Mostly Cloudy
12:55 PM 66.2 °F 62.6 °F 88% 30.11 in 10.0 mi North 11.5 mph - N/A   Clear
1:15 PM 66.2 °F 62.6 °F 88% 30.11 in 10.0 mi North 11.5 mph - N/A   Clear
1:35 PM 66.2 °F 62.6 °F 88% 30.11 in 10.0 mi North 8.1 mph - N/A   Clear
1:55 PM 66.2 °F 62.6 °F 88% 30.11 in 10.0 mi NNW 10.4 mph - N/A   Clear
2:15 PM 66.2 °F 62.6 °F 88% 30.11 in 10.0 mi NNW 10.4 mph - N/A   Clear
2:35 PM 66.2 °F 62.6 °F 88% 30.12 in 10.0 mi NNW 12.7 mph - N/A   Clear
2:55 PM 66.2 °F 62.6 °F 88% 30.12 in 10.0 mi NNW 11.5 mph 20.7 mph N/A   Clear
3:15 PM 66.2 °F 62.6 °F 88% 30.12 in 10.0 mi NNW 13.8 mph - N/A   Clear
3:35 PM 66.2 °F 62.6 °F 88% 30.12 in 10.0 mi NNW 13.8 mph 20.7 mph N/A   Clear
3:55 PM 66.2 °F 62.6 °F 88% 30.13 in 10.0 mi NNW 12.7 mph 18.4 mph N/A   Clear
4:15 PM 66.2 °F 62.6 °F 88% 30.13 in 10.0 mi NNW 12.7 mph 18.4 mph N/A   Clear
4:35 PM 66.2 °F 62.6 °F 88% 30.13 in 10.0 mi NNW 11.5 mph 18.4 mph N/A   Clear
4:55 PM 66.2 °F 62.6 °F 88% 30.13 in 10.0 mi NNW 12.7 mph - N/A   Clear
5:15 PM 66.2 °F 62.6 °F 88% 30.14 in 10.0 mi NNW 13.8 mph - N/A   Clear
5:35 PM 66.2 °F 62.6 °F 88% 30.14 in 10.0 mi NNW 11.5 mph - N/A   Clear
5:55 PM 66.2 °F 62.6 °F 88% 30.15 in 10.0 mi North 10.4 mph 16.1 mph N/A   Clear
6:15 PM 66.2 °F 62.6 °F 88% 30.16 in 10.0 mi NNW 10.4 mph 17.3 mph N/A   Clear
6:35 PM 66.2 °F 62.6 °F 88% 30.17 in 10.0 mi North 11.5 mph - N/A   Clear
6:55 PM 66.2 °F 62.6 °F 88% 30.17 in 10.0 mi North 13.8 mph - N/A   Clear
7:15 PM 66.2 °F 62.6 °F 88% 30.18 in 10.0 mi North 15.0 mph - N/A   Clear
7:35 PM 66.2 °F 62.6 °F 88% 30.19 in 10.0 mi North 16.1 mph - N/A   Clear
7:55 PM 66.2 °F 62.6 °F 88% 30.20 in 10.0 mi North 16.1 mph - N/A   Clear
8:15 PM 66.2 °F 62.6 °F 88% 30.20 in 10.0 mi North 17.3 mph - N/A   Clear
8:35 PM 66.2 °F 62.6 °F 88% 30.21 in 10.0 mi North 17.3 mph - N/A   Clear
8:55 PM 66.2 °F 62.6 °F 88% 30.22 in 10.0 mi North 16.1 mph - N/A   Clear
9:15 PM 66.2 °F 62.6 °F 88% 30.23 in 10.0 mi North 17.3 mph - N/A   Clear
9:35 PM 66.2 °F 62.6 °F 88% 30.24 in 10.0 mi North 17.3 mph - N/A   Clear
9:55 PM 66.2 °F 62.6 °F 88% 30.24 in 10.0 mi North 17.3 mph 23.0 mph N/A   Clear
10:15 PM 66.2 °F 62.6 °F 88% 30.24 in 10.0 mi North 18.4 mph - N/A   Clear
10:35 PM 66.2 °F 62.6 °F 88% 30.25 in 10.0 mi North 17.3 mph 23.0 mph N/A   Clear
10:55 PM 66.2 °F 62.6 °F 88% 30.24 in 10.0 mi NNE 21.9 mph 29.9 mph N/A   Clear
11:15 PM 66.2 °F 62.6 °F 88% 30.25 in 10.0 mi NNE 25.3 mph 32.2 mph N/A   Clear
11:35 PM 66.2 °F 62.6 °F 88% 30.25 in 10.0 mi NNE 29.9 mph 38.0 mph N/A   Clear
11:55 PM 66.2 °F 62.6 °F 88% 30.25 in 10.0 mi NNE 29.9 mph 39.1 mph N/A   Clear